Theta_e
308 308 308 309 310 311 312 314 318 323 327 329 332 332 333 334 334 334 335 336 336 336 336 336 336 337 336 337 337 336 337 336 334 334 334 334 332 333 332 332 331 331 331 331 331 332 333 334 332 330 330 329 330 330 330 330 331 331 332 332 332 333 334
307 307 307 307 309 310 311 313 314 317 322 326 328 330 331 333 333 334 334 335 335 336 336 336 336 336 336 336 337 336 336 336 335 335 335 334 334 334 333 332 331 331 330 330 329 329 330 331 332 331 330 329 329 329 329 329 329 330 331 331 332 332 333
307 306 306 307 308 308 310 312 312 313 317 321 325 328 329 331 332 333 334 334 335 335 336 336 336 336 337 336 337 336 336 336 336 336 335 335 334 334 333 333 331 330 330 330 329 328 328 329 330 331 330 329 329 329 329 329 329 329 330 330 331 331 331
306 306 306 306 307 308 308 310 311 312 314 316 320 324 328 330 332 333 334 334 334 334 335 336 336 337 337 337 337 336 336 336 336 336 335 335 334 334 333 333 333 332 332 331 330 329 329 329 330 330 330 329 329 330 330 330 330 330 330 330 330 330 330
306 305 305 305 306 307 308 309 309 311 312 313 315 320 325 329 331 332 333 334 334 334 334 334 335 336 337 337 337 336 337 336 336 336 335 334 334 334 334 333 333 333 333 333 332 331 330 330 331 331 331 330 330 330 330 330 330 330 331 330 331 331 331
306 305 305 305 306 307 308 309 309 309 310 311 313 317 321 325 329 332 333 333 333 333 334 333 334 335 336 336 336 336 336 336 336 336 335 335 335 335 334 334 333 333 333 333 333 332 331 331 330 331 331 330 330 331 330 330 330 330 330 330 330 331 331
306 305 305 305 306 307 307 308 308 308 308 311 314 316 317 319 323 327 330 332 333 333 333 333 333 334 334 335 335 335 336 336 336 336 336 336 335 335 335 334 334 334 334 333 333 333 332 331 330 330 331 330 329 330 329 329 329 330 330 331 331 331 331
306 305 305 305 305 306 306 307 307 308 308 311 314 314 314 315 317 321 325 329 331 332 333 333 333 334 334 335 335 335 335 335 335 336 336 336 336 336 335 335 334 334 334 334 333 333 333 332 332 331 331 331 331 331 330 329 329 329 330 330 330 330 330
306 305 305 305 304 305 305 306 307 307 308 309 310 310 311 312 314 317 322 325 328 331 332 333 333 334 334 335 335 335 335 335 335 336 336 336 336 336 336 335 335 334 334 334 333 333 333 333 332 332 331 331 332 333 333 331 330 330 330 330 330 330 330
305 305 305 304 304 304 305 306 306 306 306 306 307 307 309 311 312 314 317 321 325 329 331 332 333 333 334 334 335 335 335 335 335 336 336 335 336 336 336 335 335 335 335 334 333 333 333 333 332 332 332 331 331 332 333 333 332 331 330 330 330 330 330
305 305 304 304 304 304 305 305 305 305 305 306 306 307 308 309 311 312 314 318 323 326 329 331 332 333 333 333 334 334 334 335 334 335 335 335 335 335 336 335 335 335 335 334 334 334 333 333 332 332 332 332 331 331 332 333 333 332 330 330 329 330 330
305 304 304 304 304 304 304 305 305 305 305 306 306 307 308 309 310 311 313 316 320 324 327 329 331 333 333 333 334 334 334 334 335 335 335 335 335 335 335 335 335 335 335 335 334 334 333 333 333 332 332 331 331 331 331 332 332 332 331 331 330 330 330
305 304 304 304 304 304 305 305 305 305 305 306 306 306 307 308 309 310 311 314 318 323 326 327 329 332 333 333 333 334 334 334 334 335 335 335 335 335 335 335 335 335 335 335 335 334 334 333 333 333 332 332 331 331 330 330 331 331 330 331 331 330 331
305 304 303 303 303 304 305 305 306 306 306 306 306 306 306 307 308 309 311 313 317 321 325 327 328 331 332 333 333 333 334 334 334 335 335 335 335 335 335 335 335 335 335 335 335 335 334 334 333 333 332 332 331 331 330 330 330 331 331 331 331 331 331
305 304 303 303 303 304 305 305 306 306 306 306 307 306 307 308 309 310 312 314 316 320 324 327 328 330 331 333 333 333 334 334 334 334 334 335 335 335 335 335 335 335 335 335 335 335 335 334 334 333 333 333 332 332 331 330 331 331 331 331 331 331 331
304 304 302 302 302 303 304 305 306 307 307 307 308 308 308 309 311 312 314 315 317 319 323 326 327 329 330 332 333 332 333 333 334 334 334 334 335 335 335 335 335 335 335 335 335 335 335 334 334 334 333 333 333 332 332 331 331 331 331 331 331 331 331
304 303 302 301 302 302 304 306 307 307 307 308 309 310 310 311 312 313 314 316 319 320 323 326 327 328 329 330 331 331 332 333 333 333 334 334 334 335 335 335 335 335 335 335 335 335 335 335 334 334 334 334 333 333 333 332 332 332 332 332 332 331 331
304 303 302 301 301 302 303 305 305 306 307 309 310 310 310 311 312 315 317 318 320 322 325 326 327 328 329 329 330 331 331 332 332 332 333 333 333 334 334 335 335 335 335 335 335 335 335 335 335 335 335 334 334 334 333 333 332 332 332 332 332 332 332
304 303 302 301 301 301 301 302 303 304 306 308 309 309 309 308 310 314 318 321 322 324 325 327 328 328 329 328 329 330 331 331 332 333 333 332 333 333 333 334 334 335 335 335 335 335 335 335 335 335 335 335 334 334 334 333 333 332 332 332 332 332 332
303 302 302 301 301 301 301 301 302 303 304 306 307 307 307 306 306 309 313 318 323 325 325 326 326 327 327 328 329 329 330 331 331 332 333 333 332 332 332 333 333 334 334 335 335 335 335 335 335 335 335 335 335 334 334 334 334 333 333 333 333 333 333
302 302 301 301 301 301 301 301 301 302 303 305 306 306 305 304 305 306 308 312 319 323 325 325 324 324 325 326 327 328 329 331 331 332 332 333 333 333 332 333 332 333 333 334 334 334 334 334 335 334 335 335 335 335 334 334 334 334 333 333 334 333 334
301 301 301 301 301 301 301 301 301 301 302 303 303 304 304 303 304 304 305 308 312 316 320 322 323 324 325 325 325 327 328 330 330 331 332 333 333 333 333 333 333 332 333 333 333 334 334 334 334 334 334 335 335 334 334 334 334 334 334 334 334 334 334
301 301 301 301 301 301 301 301 301 300 300 301 301 302 302 302 303 303 304 305 307 309 313 317 320 322 323 324 325 325 327 328 330 331 331 332 332 333 334 333 333 333 333 333 333 333 334 334 334 334 334 334 334 334 334 334 334 334 334 334 333 334 334
300 301 301 301 301 301 301 300 300 300 300 300 300 301 301 301 302 302 303 304 305 306 309 312 316 319 320 321 322 322 324 325 327 329 331 331 332 333 333 333 334 334 334 334 334 334 334 334 334 334 334 333 333 334 334 334 334 334 334 334 334 334 334
300 301 301 301 301 300 300 300 299 299 299 299 299 300 300 300 301 301 302 303 303 304 306 308 312 315 317 318 319 319 321 322 324 326 328 330 332 332 332 332 333 334 334 334 334 334 334 334 334 334 334 334 334 334 334 334 334 334 334 334 334 334 334
300 299 299 299 299 299 299 299 299 299 299 299 299 300 300 300 300 300 301 302 302 303 304 305 307 310 314 317 318 318 318 320 322 323 325 328 330 331 332 333 333 334 334 334 334 334 333 333 333 333 334 334 334 334 334 334 334 334 334 334 334 334 334
298 298 298 298 298 299 299 298 298 298 299 299 300 300 300 300 300 300 301 301 302 302 302 303 305 306 309 313 315 316 316 317 319 320 322 325 327 329 331 331 332 333 333 334 334 333 333 333 333 333 333 333 333 333 333 333 334 334 334 334 334 334 334
297 297 298 298 298 298 299 298 297 298 299 299 300 300 300 300 300 301 301 301 301 301 302 302 303 305 306 309 311 313 314 314 315 317 320 321 324 327 328 329 330 331 332 333 333 333 333 334 334 334 333 333 333 333 331 331 333 334 334 334 334 334 334
296 297 297 298 297 298 298 298 297 297 297 298 298 298 299 300 300 300 301 301 301 301 301 302 302 303 305 306 308 309 310 311 312 315 317 319 321 324 326 328 329 330 331 332 332 333 334 334 334 334 333 332 332 332 331 332 333 334 334 334 334 334 335
296 296 297 297 297 297 298 297 296 296 296 295 295 296 296 297 298 298 299 300 301 301 301 301 301 302 303 305 306 308 309 309 310 313 315 317 319 322 324 325 327 329 330 331 331 333 334 334 333 333 333 333 332 332 331 332 333 333 333 334 334 333 334
295 295 295 296 296 297 297 297 296 295 294 294 294 294 294 294 295 295 296 297 298 299 300 300 301 301 302 304 305 307 308 309 310 313 315 316 319 321 323 324 326 327 328 329 330 331 333 333 333 333 333 333 333 333 332 332 332 332 332 333 332 331 331
295 295 295 295 295 296 297 296 295 294 293 293 293 293 293 293 293 293 294 295 296 297 297 298 299 300 301 304 305 306 307 309 311 313 315 317 319 321 323 324 325 326 327 328 329 330 331 333 333 333 333 333 333 333 333 333 333 332 332 332 332 331 330
294 294 294 294 295 295 296 295 294 293 292 292 292 292 292 292 292 293 293 294 295 295 296 297 298 299 302 304 306 306 307 309 311 313 316 317 318 320 322 324 324 325 326 327 328 329 330 332 333 333 333 333 333 334 333 333 333 333 332 332 332 331 331
294 294 294 294 294 295 295 293 292 292 292 291 291 291 291 291 291 292 293 293 294 295 297 298 299 301 302 304 305 306 307 308 310 313 315 317 318 319 321 323 324 325 326 326 328 329 330 332 333 333 333 332 333 333 333 333 333 332 332 331 331 330 330
293 293 293 293 293 294 293 292 291 291 291 291 290 290 290 291 291 292 292 293 295 296 297 298 299 300 301 303 304 306 307 308 310 312 313 315 317 319 321 323 324 325 326 327 327 328 329 331 332 332 333 333 333 333 334 333 331 331 331 331 330 329 329
293 293 293 293 293 293 292 291 291 291 291 290 290 289 290 290 291 291 292 293 294 294 295 296 297 297 298 301 304 306 308 309 310 311 311 313 316 318 320 322 323 324 326 327 327 328 329 330 330 331 332 332 331 330 330 329 329 330 330 330 329 329 329
293 292 292 292 292 292 291 290 290 290 290 289 289 289 289 290 290 291 292 293 293 292 293 294 294 294 296 300 304 306 309 310 310 310 311 313 316 318 319 321 323 325 326 327 327 327 327 327 326 326 327 327 326 325 325 325 327 329 329 329 329 328 328
Wind_Speed
17 19 21 22 21 21 21 20 18 15 15 17 19 20 21 23 24 26 28 29 29 29 29 30 31 31 32 32 31 32 34 33 31 31 30 25 24 27 29 31 32 30 27 22 16 10 5 5 8 11 14 16 17 19 22 23 24 26 27 29 30 31 33
20 21 22 23 22 22 23 23 21 18 16 15 17 19 20 22 24 25 27 28 29 29 29 30 30 31 31 31 30 31 34 34 34 34 32 28 29 29 26 27 29 28 26 25 23 18 11 8 8 7 9 12 15 20 22 22 22 23 24 26 27 29 31
23 24 24 23 23 23 24 24 24 22 19 17 17 18 19 20 22 24 26 27 27 29 30 30 30 31 32 31 32 32 33 34 35 35 34 32 32 31 28 26 25 23 18 16 18 19 14 11 10 9 8 8 11 17 21 22 22 22 23 25 26 28 29
24 24 25 24 24 24 24 24 25 24 21 20 18 18 19 20 21 23 24 25 26 28 29 30 30 31 32 33 33 34 34 34 34 34 34 34 32 31 30 29 28 26 21 16 18 20 16 10 9 9 11 13 14 19 21 22 23 23 23 25 26 27 27
23 23 23 24 23 22 23 24 25 25 24 22 21 19 18 18 21 23 24 25 25 27 28 29 31 32 32 33 32 32 32 32 33 33 32 33 33 32 30 31 32 30 29 27 24 23 22 19 14 9 11 13 13 17 20 19 19 21 22 23 24 26 26
24 23 22 22 21 21 21 22 24 27 27 25 23 22 20 19 20 22 24 24 25 26 27 28 30 32 32 33 32 31 31 32 33 33 33 34 35 34 33 33 33 31 32 32 28 26 26 24 18 12 12 13 11 14 18 17 17 19 22 24 25 25 26
24 23 22 21 21 20 21 22 24 26 28 26 23 23 23 21 20 22 24 25 25 26 27 27 29 30 32 33 33 33 33 34 34 32 34 35 35 36 35 33 33 34 35 33 30 30 27 24 20 15 11 11 12 13 13 15 16 16 19 23 25 24 25
24 24 23 22 21 21 22 23 24 25 26 26 25 25 26 25 23 22 23 24 25 27 27 27 27 29 30 31 33 33 33 33 31 30 32 34 35 36 36 36 35 35 36 34 32 32 31 28 27 23 15 9 8 9 9 11 15 17 21 23 24 25 25
25 24 24 24 23 23 23 23 24 24 25 27 28 29 28 27 25 24 23 24 24 26 27 27 27 28 29 30 30 32 33 31 30 30 32 33 35 36 37 37 36 36 37 35 33 33 34 32 31 28 23 15 9 6 6 8 9 14 21 22 22 24 24
26 25 25 25 25 24 23 23 25 26 27 28 30 30 29 28 28 26 25 25 24 25 26 27 27 28 29 29 30 30 31 31 31 32 33 33 34 36 36 36 36 37 37 34 34 34 34 33 32 30 27 24 16 8 6 7 7 8 14 18 19 20 20
27 26 26 26 26 25 25 26 26 27 27 27 28 29 29 30 29 28 26 25 25 26 26 27 27 27 28 28 29 30 30 30 31 32 34 34 34 34 34 34 35 37 37 34 34 35 34 33 33 31 29 27 23 17 10 8 9 10 13 17 19 19 17
27 27 27 27 27 26 27 28 28 28 27 26 27 28 29 30 30 29 27 26 25 25 26 27 27 27 28 28 28 29 30 30 30 31 33 34 35 34 33 34 35 35 35 34 34 34 32 33 33 31 30 28 27 27 21 12 10 11 14 16 19 21 20
27 28 28 28 28 28 28 29 29 29 28 27 27 28 30 30 30 29 28 27 26 25 26 27 27 27 28 28 28 29 29 30 30 31 32 33 34 33 32 33 34 35 35 33 33 33 32 32 32 31 30 29 29 29 26 19 12 11 14 18 19 21 21
27 27 28 29 28 28 28 29 29 30 29 28 28 29 30 30 29 30 29 27 27 26 26 26 27 27 28 28 28 29 30 29 29 31 31 32 33 33 33 33 33 35 35 33 32 32 32 31 31 31 30 29 29 29 27 23 17 14 17 20 20 22 24
26 27 28 29 29 28 28 28 29 30 30 29 28 28 29 29 29 29 28 27 26 25 26 26 26 27 28 29 28 28 29 29 29 31 31 31 32 32 32 32 32 33 34 33 32 32 32 31 30 30 31 30 29 29 28 27 23 17 17 21 22 23 25
25 26 27 28 29 28 28 28 29 29 30 30 28 26 27 28 28 28 28 27 26 25 25 25 26 27 28 29 29 29 29 29 29 30 31 31 31 31 31 32 33 34 33 32 32 33 32 31 30 30 31 30 30 30 30 30 28 21 18 22 23 22 23
24 25 26 27 28 27 27 28 27 27 29 29 26 25 25 27 28 28 28 27 25 24 24 24 25 27 28 28 29 30 30 30 30 31 31 30 29 30 31 31 33 34 33 31 31 32 32 31 30 30 30 30 30 31 31 31 32 28 23 21 23 23 23
24 25 26 26 27 27 26 26 26 26 27 27 24 23 24 25 26 27 27 26 24 23 22 23 24 25 27 28 29 29 30 30 30 31 32 32 31 31 31 32 34 34 33 31 31 31 31 31 31 30 30 30 29 30 30 31 32 31 27 24 24 23 23
24 25 26 26 26 27 27 26 26 25 25 24 23 23 23 24 25 26 26 25 23 22 22 22 22 24 26 27 28 29 29 30 30 31 33 34 34 33 33 33 34 34 33 32 31 32 32 32 31 31 30 30 30 29 29 30 30 30 29 28 27 25 24
24 25 25 25 26 27 28 27 25 24 23 23 23 23 24 26 26 26 25 21 19 20 21 21 20 21 23 24 26 28 29 30 30 31 33 35 35 35 35 34 35 35 34 33 33 34 33 33 32 31 32 31 30 29 29 29 29 28 27 27 26 26 26
24 25 25 25 26 27 27 26 25 24 23 23 23 22 23 25 26 27 26 22 17 16 17 18 18 19 21 22 24 26 28 29 30 31 32 33 35 35 35 35 36 37 37 36 36 36 35 34 32 31 32 32 31 30 29 28 28 26 26 25 24 26 26
24 24 24 25 26 26 25 24 25 24 23 23 22 23 23 23 24 26 26 23 20 16 14 15 15 16 18 20 23 25 27 28 29 31 33 33 34 35 35 35 35 37 38 38 38 39 38 36 34 32 32 32 32 31 30 29 28 25 24 23 22 24 23
24 23 23 24 25 24 23 23 25 26 25 24 23 23 23 23 22 25 26 25 23 21 18 16 14 14 15 17 20 23 25 27 29 30 31 33 34 34 35 35 36 37 38 38 39 40 40 40 39 37 36 35 33 31 30 29 28 26 24 21 21 22 18
24 23 22 22 22 22 22 23 25 27 26 25 24 22 22 21 21 23 24 24 25 24 22 20 17 17 16 16 18 19 21 24 26 28 30 31 32 33 33 33 34 35 37 38 39 41 42 42 42 41 41 40 39 36 33 31 29 28 26 23 23 24 19
23 22 22 22 21 21 20 21 24 27 27 26 25 23 23 22 22 21 22 23 25 26 25 23 21 19 19 19 19 20 22 23 24 26 28 30 31 31 33 34 34 36 37 37 38 39 40 42 43 43 43 44 44 44 41 38 35 31 29 27 25 26 24
22 22 22 22 21 20 20 20 22 25 26 27 25 24 25 24 23 22 21 22 24 26 27 27 25 23 21 21 21 21 23 25 25 26 27 29 31 31 31 32 32 34 37 38 38 39 39 39 40 41 43 45 46 48 48 47 45 41 37 33 29 29 30
22 22 21 20 20 20 20 21 22 22 23 24 24 25 25 25 25 23 21 21 23 26 27 28 27 26 24 23 23 22 24 26 27 28 27 27 29 31 32 31 29 30 33 35 37 38 38 37 36 37 39 42 46 48 47 48 49 48 46 42 36 35 36
22 21 20 19 19 20 20 21 22 22 20 21 22 24 25 25 26 25 24 23 24 26 27 27 26 26 26 26 25 25 25 27 28 29 30 29 29 31 33 33 32 30 31 32 33 33 35 35 34 34 36 39 43 46 45 46 48 50 50 49 45 43 42
22 20 19 19 20 21 21 20 22 22 21 21 21 21 22 23 24 25 25 25 24 25 28 28 27 27 27 26 26 27 27 27 28 28 30 31 30 30 31 32 33 32 32 34 34 34 35 35 34 33 34 35 38 41 43 45 48 50 51 52 51 50 49
20 19 19 20 21 21 21 19 19 21 23 23 22 22 23 23 23 23 24 24 23 25 29 30 28 28 27 24 25 27 27 26 27 27 28 29 30 30 30 31 32 32 33 35 36 36 36 36 36 33 31 31 33 36 39 42 45 49 51 53 53 52 52
19 19 19 20 21 21 21 19 18 21 24 24 24 24 24 24 24 23 23 23 22 23 28 30 29 29 28 24 23 26 26 24 25 27 27 27 28 29 31 32 33 33 34 36 37 37 37 38 38 35 33 32 31 31 33 35 38 41 44 48 50 48 47
18 19 19 20 20 21 22 20 19 21 23 23 24 25 24 23 24 24 23 23 22 21 25 28 27 26 26 23 22 24 23 21 23 24 25 25 26 28 30 32 34 35 36 37 38 38 39 40 40 38 36 33 30 30 32 34 35 35 34 37 41 42 42
18 18 19 20 20 20 20 19 20 22 22 21 24 25 24 23 23 23 22 22 22 21 21 24 25 24 22 21 20 21 21 21 22 23 23 23 26 27 27 29 32 35 37 38 39 40 41 42 42 40 38 34 32 33 35 36 36 34 32 34 37 37 37
17 17 17 19 20 19 18 19 20 21 21 23 24 25 24 23 22 22 21 21 21 21 20 21 23 22 20 19 17 18 20 21 21 21 22 23 25 26 27 28 30 32 34 35 36 39 41 43 44 42 39 37 37 37 36 35 34 34 34 35 33 31 32
15 16 17 18 19 19 18 19 20 20 21 22 24 24 24 23 22 22 21 20 20 20 20 19 20 21 20 19 18 18 20 21 21 20 22 24 25 27 29 30 31 32 33 33 34 36 39 42 43 43 43 42 41 41 41 38 33 31 33 32 29 27 28
15 16 17 18 18 18 19 20 21 20 20 21 22 23 23 22 22 22 21 19 19 20 20 20 21 22 21 19 17 17 19 22 22 21 23 26 29 31 31 30 31 31 31 31 32 34 37 39 42 44 45 44 40 37 36 32 30 30 30 27 25 25 26
15 16 16 17 17 18 18 20 20 19 19 20 21 22 21 21 21 21 20 19 20 21 21 21 23 24 22 18 15 15 18 20 19 19 21 25 30 31 30 28 28 29 29 29 28 30 32 33 35 36 36 36 33 27 22 19 22 26 25 23 23 24 24
Wind_Direction
335 327 324 324 323 322 322 323 323 318 309 302 298 294 284 272 264 258 254 251 248 243 237 234 235 237 239 238 235 235 236 236 231 232 237 235 229 234 235 233 236 239 240 240 238 239 256 275 259 248 252 255 255 259 264 267 268 269 270 270 269 269 268
334 325 321 320 317 317 316 316 319 321 315 307 300 297 291 282 273 265 259 254 250 246 242 238 237 239 240 238 235 234 235 235 234 234 236 235 233 234 232 230 232 236 239 241 242 240 241 254 262 259 254 257 260 259 260 263 267 268 269 270 271 271 272
337 330 324 321 317 315 313 310 313 318 318 314 306 298 294 290 283 273 265 259 254 250 246 242 238 238 240 239 237 236 235 236 236 235 236 237 238 236 233 229 226 227 231 237 234 232 235 242 251 260 252 244 257 261 259 259 261 265 268 271 272 273 274
340 334 327 322 319 317 314 309 308 312 315 313 310 303 297 294 290 281 272 266 260 253 249 245 241 238 238 239 239 237 236 236 236 236 237 238 240 239 236 231 228 225 224 226 225 220 221 227 237 254 253 246 251 257 261 262 261 263 266 267 269 271 273
339 333 326 320 317 316 315 311 306 307 309 310 308 305 301 296 290 285 277 268 260 256 252 250 246 241 238 238 239 237 234 234 235 236 237 237 238 239 237 234 233 233 231 233 231 222 221 225 228 241 249 244 245 250 256 262 262 262 263 263 265 267 271
339 333 326 320 316 313 312 310 306 305 305 307 306 302 301 297 290 285 280 271 263 259 256 254 251 245 239 237 237 237 235 234 233 233 236 238 238 237 238 238 237 237 237 237 235 231 229 227 226 236 243 236 238 254 257 257 259 264 265 264 265 267 268
340 333 326 320 315 311 309 307 305 304 304 303 301 297 296 297 292 285 282 277 271 265 260 257 254 250 245 241 239 238 238 237 235 232 235 238 238 238 239 239 239 239 240 240 237 235 233 227 226 232 236 233 238 251 258 255 255 260 263 265 266 267 267
339 332 326 320 314 311 309 307 305 305 304 300 297 294 292 294 296 290 284 280 275 270 264 258 256 252 247 242 238 238 238 239 237 234 236 237 237 239 239 239 240 241 243 242 239 238 236 233 233 234 232 235 244 248 252 251 248 251 258 265 269 266 265
339 331 326 322 318 313 310 307 304 303 301 298 295 293 290 289 293 294 288 282 277 272 266 260 256 253 248 242 238 237 237 238 238 237 239 239 238 239 239 239 240 241 244 243 241 240 239 238 239 238 233 231 240 253 255 250 245 251 256 259 265 267 264
339 332 324 321 318 314 309 304 300 298 298 297 295 293 291 287 287 290 290 286 278 273 268 262 258 254 251 246 241 238 237 237 238 239 241 240 240 241 240 239 239 241 244 243 241 242 241 240 240 240 237 233 231 237 257 261 248 245 250 249 254 264 265
339 333 325 319 315 312 308 304 300 297 296 297 295 292 290 287 286 288 290 288 280 274 268 264 260 256 253 250 245 242 241 240 238 240 242 241 241 241 240 239 239 240 243 242 242 243 241 240 240 240 240 237 232 232 241 261 257 241 241 244 247 254 261
337 334 327 320 314 310 307 306 303 299 296 295 292 290 288 287 286 286 288 289 284 276 271 266 263 258 254 251 248 245 244 243 240 239 240 240 241 241 240 239 238 239 242 241 242 243 240 240 240 239 239 237 234 234 236 246 264 246 232 240 249 253 257
334 333 328 322 315 309 307 306 304 301 297 293 289 287 286 285 285 286 287 289 286 279 272 267 264 260 256 253 250 246 243 241 239 238 239 239 240 240 239 239 237 238 240 240 240 242 240 239 239 237 237 237 235 235 234 236 255 255 240 245 253 256 258
332 331 328 324 316 310 309 307 305 303 299 294 291 288 285 283 284 285 286 286 286 280 272 268 265 260 255 254 252 248 244 241 238 238 238 238 238 239 238 238 238 238 239 239 239 241 240 238 237 235 235 235 234 235 232 231 244 258 256 253 252 254 258
329 328 327 325 318 312 308 308 309 306 301 299 296 291 286 285 285 285 284 283 282 278 271 267 266 261 255 253 251 248 245 242 240 239 238 238 237 238 237 237 238 238 239 238 238 240 240 238 236 233 233 233 234 234 231 230 239 252 257 255 251 250 254
326 326 326 325 320 314 310 309 310 309 306 304 302 298 293 290 287 285 282 279 277 274 269 265 264 262 257 253 251 250 249 245 241 239 238 237 236 235 235 236 237 238 239 237 237 239 240 238 235 233 232 232 232 235 233 230 235 244 252 256 253 247 246
323 323 324 325 322 318 314 311 310 310 309 307 307 306 302 297 292 286 280 276 274 270 265 262 261 262 261 257 253 252 251 248 245 243 242 240 237 235 235 236 237 238 237 236 235 237 238 237 235 233 233 233 232 234 234 232 234 238 245 254 255 248 243
319 320 322 323 323 322 316 311 308 308 308 308 308 309 307 304 299 291 280 273 270 266 262 259 259 260 261 260 257 254 252 250 248 247 246 245 242 240 238 238 239 239 237 235 235 236 236 236 234 232 233 233 232 233 235 235 235 236 239 247 253 252 246
316 317 318 319 321 321 317 312 308 305 305 305 306 306 307 308 307 300 288 276 267 264 263 261 260 261 261 261 261 259 256 253 250 248 249 249 247 244 241 239 241 241 238 235 235 236 236 235 234 232 232 233 233 233 233 235 236 236 237 242 248 251 249
316 315 315 315 317 319 318 315 312 307 304 302 302 303 305 308 310 309 304 293 276 265 262 260 260 261 262 263 263 262 259 256 252 249 248 248 248 246 243 241 241 242 241 238 236 237 237 236 235 234 232 233 233 233 232 234 236 235 236 239 244 247 249
316 315 315 314 316 317 317 316 314 311 307 302 301 300 303 308 309 310 310 309 297 278 265 262 263 263 264 266 265 264 262 258 255 251 249 247 247 246 244 241 241 242 242 241 240 239 238 237 236 234 233 233 232 231 230 232 234 233 234 236 240 244 247
317 317 317 316 317 317 317 317 315 313 308 304 300 299 302 305 306 307 308 308 306 298 283 274 273 272 273 274 273 270 266 263 259 255 251 248 248 247 245 242 242 243 243 242 242 242 242 241 238 235 234 232 230 229 229 230 231 232 234 235 237 241 245
319 318 318 318 318 318 317 316 314 311 309 306 302 300 302 302 301 303 304 304 305 304 297 289 284 281 281 283 285 282 276 269 265 260 255 250 248 248 245 242 241 243 243 243 243 243 244 244 242 240 238 235 232 229 227 228 229 230 233 235 236 238 239
319 317 315 315 315 315 314 314 313 312 310 308 305 303 302 300 297 297 298 299 300 300 297 293 287 284 285 288 292 294 291 284 275 267 261 254 250 248 247 246 244 244 245 243 243 244 245 245 245 245 244 242 239 234 230 229 228 228 231 234 236 236 234
320 318 317 316 315 315 314 314 315 314 312 311 309 307 306 303 300 298 296 295 295 294 294 292 288 284 282 284 289 294 296 296 291 280 269 260 254 251 251 251 248 246 245 244 242 243 244 246 247 247 248 247 244 239 235 233 231 228 228 231 234 235 232
321 319 319 318 316 316 315 315 317 316 314 314 312 309 309 308 305 302 297 294 292 290 290 291 290 288 284 281 283 288 290 291 292 291 282 269 260 255 253 253 251 247 246 244 242 240 241 244 247 248 248 247 245 241 237 235 235 234 233 232 233 235 234
321 318 318 318 315 313 313 316 320 318 315 314 312 309 309 308 306 304 299 295 293 292 291 290 289 289 287 282 281 282 285 286 286 288 287 279 269 263 259 258 256 253 250 246 241 237 237 239 241 244 245 246 245 242 238 234 234 235 236 235 234 237 238
321 317 316 316 314 312 310 315 323 323 317 314 311 306 305 304 304 304 302 299 297 295 293 293 292 290 287 284 283 282 281 283 284 284 284 282 277 271 265 261 259 257 256 252 247 242 238 237 238 239 240 241 243 244 240 236 234 234 235 236 236 238 241
322 318 317 316 315 314 310 313 323 326 320 317 314 309 305 303 302 302 303 301 299 295 294 296 296 293 289 286 284 284 282 283 283 283 282 282 279 274 270 265 260 257 257 257 255 250 245 241 238 237 235 234 237 241 240 238 237 237 237 237 237 238 241
324 321 320 318 317 316 312 312 321 327 322 317 316 314 311 307 303 302 301 300 297 294 293 294 293 293 293 289 284 283 283 283 283 282 282 282 279 275 271 267 262 257 255 255 255 253 249 243 237 235 235 235 236 237 238 240 240 240 240 240 239 238 240
327 325 324 322 319 318 316 313 320 327 324 316 313 314 313 309 305 303 300 299 297 294 291 290 290 289 289 287 283 283 282 280 279 278 277 277 276 273 271 268 264 259 256 255 254 253 251 245 238 235 236 237 237 236 236 237 239 240 241 242 242 241 241
329 328 326 324 322 321 320 319 321 324 323 317 314 313 313 310 306 303 301 300 301 298 292 291 290 289 288 287 286 285 282 277 273 271 271 272 272 269 267 265 263 260 258 257 255 253 251 247 240 236 235 234 235 237 237 237 238 238 237 240 244 243 242
332 331 329 328 326 324 324 326 326 324 322 320 317 314 313 312 308 304 303 304 304 302 297 295 295 297 298 297 293 287 281 271 265 265 266 267 267 266 264 262 261 260 259 258 256 254 252 248 242 238 235 232 233 236 239 239 238 236 235 239 243 243 242
336 334 331 331 330 328 330 332 329 325 324 322 320 318 317 317 314 310 308 308 308 308 304 300 300 303 304 297 287 282 277 270 264 264 266 266 265 265 264 261 260 258 257 257 257 257 254 251 246 241 236 235 236 238 240 239 235 233 235 238 241 241 241
343 338 335 335 333 331 334 336 333 329 327 325 324 323 322 322 320 316 315 315 315 314 313 310 307 308 305 294 283 278 275 272 268 265 265 266 266 264 263 260 259 257 256 256 258 260 258 254 250 246 243 242 241 241 240 234 228 229 233 234 236 238 238
349 344 339 338 337 336 337 338 336 334 332 331 330 328 327 328 326 322 322 324 323 322 322 321 317 315 313 303 290 280 272 269 267 261 258 261 263 264 264 263 261 259 257 255 257 260 259 255 251 248 246 244 239 238 238 230 220 222 227 227 229 233 232
352 348 345 343 342 342 343 343 341 339 339 338 335 332 332 332 331 328 327 330 330 328 328 329 327 325 325 319 303 284 269 264 264 262 259 261 263 264 264 263 262 260 256 253 252 253 253 251 247 244 243 241 237 237 238 226 217 221 222 221 225 229 230